Eielson Air Force Base, AK

3:55 PM AKDT on August 24, 2016 (GMT -0800)
Eielson Air Force Base

Weather History for PAEI - October, 2012

Change the Weather History Date:

Wednesday, October 3, 2012

  Actual Average Record
Temperature  
Mean Temperature 40 °F -  
Max Temperature 56 °F 40 °F 63 °F (1950)
Min Temperature 25 °F 25 °F 0 °F (1974)
Degree Days  
Heating Degree Days 25    
Moisture  
Dew Point 26 °F    
Average Humidity 56    
Maximum Humidity 89    
Minimum Humidity 31    
Precipitation  
Precipitation 0.00 in - - ()
Sea Level Pressure  
Sea Level Pressure 30.12 in    
Wind  
Wind Speed 4 mph (SE)    
Max Wind Speed 15 mph    
Max Gust Speed -    
Visibility 10 miles    
Events      
Averages and records for this station are not official NWS values.
T = Trace of Precipitation, MM = Missing Value Source: NWS Daily Summary

Daily Weather History Graph

Daily Weather History Graph

Search for Another Location

Airport or City:

Trip Planner

Search our weather history database for the weather conditions in past years. The results will help you decide how hot, cold, wet, or windy it might be!

Date:

Astronomy

Oct. 03, 2012 Rise Set
Actual Time 8:05 AM AKDT 7:06 PM AKDT
Civil Twilight 7:17 AM AKDT 7:55 PM AKDT
Nautical Twilight 6:20 AM AKDT 8:52 PM AKDT
Astronomical Twilight 5:19 AM AKDT 9:52 PM AKDT
Moon 7:21 PM AKDT (10/3) 1:19 PM AKDT (10/3)
Length of Visible Light 12h 37m
Length of Day
11h 01m
Waning Gibbous, 88% of the Moon is Illuminated
Oct 3
Waning Gibbous
Oct 7
Last Quarter
Oct 15
New
Oct 21
First Quarter
Oct 29
Full

Hourly Weather History & Observations

Time (AKDT) Temp. Windchill Dew Point Humidity Pressure Visibility Wind Dir Wind Speed Gust Speed Precip Events Conditions
12:55 AM 33.8 °F - 25.9 °F 73% 30.16 in 10.0 mi Calm Calm - N/A   Mostly Cloudy
1:55 AM 31.6 °F - 25.5 °F 78% 30.17 in 10.0 mi Calm Calm - N/A   Clear
2:55 AM 31.5 °F 28.1 °F 24.8 °F 76% 30.18 in 10.0 mi North 3.5 mph - N/A   Partly Cloudy
3:55 AM 30.7 °F - 25.3 °F 80% 30.18 in 10.0 mi Calm Calm - N/A   Overcast
7:55 AM 25.3 °F - 22.5 °F 89% 30.21 in 10.0 mi Calm Calm - N/A   Clear
8:55 AM 27.9 °F - 24.1 °F 86% 30.20 in 10.0 mi Calm Calm - N/A   Clear
9:55 AM 30.4 °F - 25.5 °F 82% 30.20 in 10.0 mi Calm Calm - N/A   Clear
10:55 AM 35.2 °F - 27.1 °F 72% 30.22 in 10.0 mi Calm Calm - 0.00 in   Clear
11:55 AM 40.3 °F 38.2 °F 27.9 °F 61% 30.21 in 10.0 mi North 3.5 mph - N/A   Clear
12:55 PM 46.9 °F - 28.9 °F 50% 30.19 in 10.0 mi Calm Calm - N/A   Clear
1:55 PM 54.3 °F - 26.6 °F 34% 30.16 in 10.0 mi SE 11.5 mph - N/A   Clear
2:55 PM 55.0 °F - 26.8 °F 34% 30.20 in 10.0 mi SE 10.4 mph - N/A   Clear
3:55 PM 55.8 °F - 25.7 °F 31% 30.09 in 10.0 mi SE 10.4 mph - N/A   Clear
4:55 PM 55.0 °F - 26.2 °F 33% 30.08 in 10.0 mi SE 15.0 mph - N/A   Clear
5:55 PM 53.2 °F - 27.0 °F 36% 30.06 in 10.0 mi SE 11.5 mph - N/A   Clear
6:55 PM 50.9 °F - 27.0 °F 40% 30.04 in 10.0 mi SE 12.7 mph - N/A   Clear
7:55 PM 50.7 °F - 26.6 °F 39% 30.02 in 10.0 mi SE 12.7 mph - N/A   Clear
8:55 PM 50.5 °F - 27.1 °F 40% 29.99 in 10.0 mi SE 11.5 mph - N/A   Clear
9:55 PM 49.6 °F - 27.7 °F 43% 29.98 in 10.0 mi SE 8.1 mph - N/A   Partly Cloudy
10:55 PM 49.1 °F - 28.0 °F 44% 29.96 in 10.0 mi SE 9.2 mph - N/A   Mostly Cloudy
11:55 PM 49.1 °F - 28.4 °F 45% 29.96 in 10.0 mi SE 5.8 mph - N/A   Overcast